Surface/Precipitation History
02/23/2018 19:07  to  2/24/2018 19:07
Change End Date:
Date/Time
(MST)
Sf
Temp Chem Water Layer Surface Precipitation
Sfc Pvt Sub Frz Factor Pct Dpth DpthThk IcePct Cond Salin FI Type Intens Accum Rate
02/24/2018 19:06 Dry 20.1F - 20F - - - - - - 0 mhos 0 - None None 0.02 in 0.0 iph
02/24/2018 19:00 Dry 20.1F - 20F - - - - - - 0 mhos 0 - None None 0.02 in 0.0 iph
02/24/2018 18:51 Dry 20.7F - 20F - - - - - - 0 mhos 0 - None None 0.02 in 0.0 iph
02/24/2018 18:50 Dry 20.7F - 20F - - - - - - 0 mhos 0 - None None 0.02 in 0.0 iph
02/24/2018 18:40 Dry 21.2F - 20F - - - - - - 0 mhos 0 - None None 0.03 in 0.0 iph
02/24/2018 18:37 Dry 21.4F - 20F - - - - - - 0 mhos 0 - None None 0.04 in 0.0 iph
02/24/2018 18:30 Dry 21.7F - 19F - - - - - - 0 mhos 0 - None None 0.04 in 0.0 iph
02/24/2018 18:21 Dry 22.3F - 20F - - - - - - 0 mhos 0 - None None 0.04 in 0.0 iph
02/24/2018 18:20 Dry 22.3F - 19F - - - - - - 0 mhos 0 - None None 0.04 in 0.0 iph
02/24/2018 18:10 Dry 23.0F - 19F - - - - - - 0 mhos 0 - None None 0.04 in 0.0 iph
02/24/2018 18:06 Dry 23.5F - 19F - - - - - - 0 mhos 0 - None None 0.05 in 0.0 iph
02/24/2018 18:00 Dry 24.1F - 19F - - - - - - 0 mhos 0 - None None 0.05 in 0.0 iph
02/24/2018 17:51 Dry 25.2F - 19F - - - - - - 0 mhos 0 - None None 0.05 in 0.0 iph
02/24/2018 17:50 Dry 25.2F - 19F - - - - - - 0 mhos 0 - None None 0.05 in 0.0 iph
02/24/2018 17:40 Dry 26.4F - 19F - - - - - - 0 mhos 0 - None None 0.06 in 0.0 iph
Date/Time
(MST)
Sf
Temp Chem Water Layer Surface Precipitation
Sfc Pvt Sub Frz Factor Pct Dpth DpthThk IcePct Cond Salin FI Type Intens Accum Rate
02/24/2018 17:37 Dry 27.1F - 19F - - - - - - 0 mhos 0 - None None 0.06 in 0.0 iph
02/24/2018 17:30 Dry 28.6F - 19F - - - - - - 0 mhos 0 - None None 0.06 in 0.0 iph
02/24/2018 17:21 Dry 30.2F - 19F - - - - - - 0 mhos 0 - None None 0.06 in 0.0 iph
02/24/2018 17:20 Dry 30.4F - 19F - - - - - - 0 mhos 0 - None None 0.06 in 0.0 iph
02/24/2018 17:10 Dry 31.8F - 19F - - - - - - 0 mhos 0 - None None 0.06 in 0.0 iph
02/24/2018 17:06 Dry 32.2F - 19F - - - - - - 0 mhos 0 - None None 0.06 in 0.0 iph
02/24/2018 17:00 Dry 33.1F - 19F - - - - - - 0 mhos 0 - None None 0.06 in 0.0 iph
02/24/2018 16:52 Dry 34.2F - 19F - - - - - - 0 mhos 0 - None None 0.06 in 0.0 iph
02/24/2018 16:50 Dry 34.3F - 19F - - - - - - 0 mhos 0 - None None 0.06 in 0.0 iph
02/24/2018 16:40 Dry 35.4F - 19F - - - - - - 0 mhos 0 - None None 0.06 in 0.0 iph
02/24/2018 16:36 Dry 35.6F - 19F - - - - - - 0 mhos 0 - None None 0.07 in 0.0 iph
02/24/2018 16:30 Dry 36.1F - 19F - - - - - - 0 mhos 0 - None None 0.07 in 0.0 iph
02/24/2018 16:21 Dry 36.5F - 19F - - - - - - 0 mhos 0 - None None 0.07 in 0.0 iph
02/24/2018 16:20 Dry 36.5F - 19F - - - - - - 0 mhos 0 - None None 0.07 in 0.0 iph
02/24/2018 16:10 Dry 37.0F - 19F - - - - - - 0 mhos 0 - None None 0.07 in 0.0 iph
Date/Time
(MST)
Sf
Temp Chem Water Layer Surface Precipitation
Sfc Pvt Sub Frz Factor Pct Dpth DpthThk IcePct Cond Salin FI Type Intens Accum Rate
02/24/2018 16:07 Dry 37.8F - 19F - - - - - - 0 mhos 0 - None None 0.07 in 0.0 iph
02/24/2018 15:59 Dry 38.1F - 19F - - - - - - 0 mhos 0 - None None 0.07 in 0.0 iph
02/24/2018 15:52 Dry 38.7F - 18F - - - - - - 0 mhos 0 - None None 0.07 in 0.0 iph
02/24/2018 15:49 Dry 38.8F - 18F - - - - - - 0 mhos 0 - None None 0.07 in 0.0 iph
02/24/2018 15:39 Dry 39.0F - 18F - - - - - - 0 mhos 0 - None None 0.07 in 0.0 iph
02/24/2018 15:37 Dry 39.2F - 18F - - - - - - 0 mhos 0 - None None 0.08 in 0.0 iph
02/24/2018 15:29 Dry 39.2F - 18F - - - - - - 0 mhos 0 - None None 0.08 in 0.0 iph
02/24/2018 15:22 Dry 39.2F - 18F - - - - - - 0 mhos 0 - None None 0.08 in 0.0 iph
02/24/2018 15:19 Dry 39.6F - 18F - - - - - - 0 mhos 0 - None None 0.08 in 0.0 iph
02/24/2018 15:09 Dry 39.9F - 18F - - - - - - 0 mhos 0 - Snow Slight 0.08 in 0.0 iph
02/24/2018 15:07 Dry 39.9F - 18F - - - - - - 0 mhos 0 - Snow Slight 0.08 in 0.0 iph
02/24/2018 14:59 Dry 39.6F - 18F - - - - - - 0 mhos 0 - None None 0.08 in 0.0 iph
02/24/2018 14:52 Dry 39.2F - 18F - - - - - - 0 mhos 0 - None None 0.08 in 0.0 iph
02/24/2018 14:49 Dry 39.2F - 18F - - - - - - 0 mhos 0 - None None 0.09 in 0.0 iph
02/24/2018 14:39 Dry 39.2F - 18F - - - - - - 0 mhos 0 - None None 0.09 in 0.0 iph
Date/Time
(MST)
Sf
Temp Chem Water Layer Surface Precipitation
Sfc Pvt Sub Frz Factor Pct Dpth DpthThk IcePct Cond Salin FI Type Intens Accum Rate
02/24/2018 14:37 Dry 39.4F - 18F - - - - - - 0 mhos 0 - None None 0.09 in 0.0 iph
02/24/2018 14:29 Dry 40.3F - 18F - - - - - - 0 mhos 0 - None None 0.09 in 0.0 iph
02/24/2018 14:22 Dry 41.4F - 18F - - - - - - 0 mhos 0 - None None 0.09 in 0.0 iph
02/24/2018 14:19 Dry 41.5F - 18F - - - - - - 0 mhos 0 - None None 0.09 in 0.0 iph
02/24/2018 14:09 Dry 41.7F - 18F - - - - - - 0 mhos 0 - None None 0.09 in 0.0 iph
02/24/2018 14:08 Dry 41.9F - 18F - - - - - - 0 mhos 0 - None None 0.09 in 0.0 iph
02/24/2018 13:59 Dry 42.4F - 17F - - - - - - 0 mhos 0 - None None 0.09 in 0.0 iph
02/24/2018 13:52 Dry 42.6F - 18F - - - - - - 0 mhos 0 - None None 0.09 in 0.0 iph
02/24/2018 13:49 Dry 42.4F - 17F - - - - - - 0 mhos 0 - None None 0.09 in 0.0 iph
02/24/2018 13:39 Dry 42.8F - 17F - - - - - - 0 mhos 0 - None None 0.10 in 0.0 iph
02/24/2018 13:37 Dry 42.6F - 17F - - - - - - 0 mhos 0 - None None 0.10 in 0.0 iph
02/24/2018 13:29 Dry 42.1F - 17F - - - - - - 0 mhos 0 - None None 0.10 in 0.0 iph
02/24/2018 13:22 Dry 42.4F - 17F - - - - - - 0 mhos 0 - None None 0.10 in 0.0 iph
02/24/2018 13:19 Dry 42.4F - 17F - - - - - - 0 mhos 0 - None None 0.10 in 0.0 iph
02/24/2018 13:08 Dry 41.7F - 17F - - - - - - 0 mhos 0 - None None 0.10 in 0.0 iph
Date/Time
(MST)
Sf
Temp Chem Water Layer Surface Precipitation
Sfc Pvt Sub Frz Factor Pct Dpth DpthThk IcePct Cond Salin FI Type Intens Accum Rate
02/24/2018 13:06 Dry 42.1F - 17F - - - - - - 0 mhos 0 - None None 0.10 in 0.0 iph
02/24/2018 12:58 Dry 41.2F - 17F - - - - - - 0 mhos 0 - None None 0.11 in 0.0 iph
02/24/2018 12:53 Dry 39.6F - 17F - - - - - - 0 mhos 0 - None None 0.11 in 0.0 iph
02/24/2018 12:48 Dry 40.3F - 17F - - - - - - 0 mhos 0 - None None 0.11 in 0.0 iph
02/24/2018 12:38 Dry 39.6F - 17F - - - - - - 0 mhos 0 - None None 0.11 in 0.0 iph
02/24/2018 12:37 Dry 39.7F - 17F - - - - - - 0 mhos 0 - None None 0.11 in 0.0 iph
02/24/2018 12:28 Dry 39.0F - 17F - - - - - - 0 mhos 0 - None None 0.11 in 0.0 iph
02/24/2018 12:22 Dry 38.3F - 17F - - - - - - 0 mhos 0 - None None 0.11 in 0.0 iph
02/24/2018 12:18 Dry 37.9F - 17F - - - - - - 0 mhos 0 - None None 0.12 in 0.0 iph
02/24/2018 12:08 Dry 37.4F - 17F - - - - - - 0 mhos 0 - None None 0.12 in 0.0 iph
02/24/2018 12:07 Dry 37.4F - 17F - - - - - - 0 mhos 0 - None None 0.12 in 0.0 iph
02/24/2018 11:58 Dry 36.1F - 17F - - - - - - 0 mhos 0 - None None 0.12 in 0.0 iph
02/24/2018 11:52 Dry 35.4F - 17F - - - - - - 0 mhos 0 - None None 0.12 in 0.0 iph
02/24/2018 11:48 Dry 35.1F - 17F - - - - - - 0 mhos 0 - Snow Slight 0.13 in 0.0 iph
02/24/2018 11:38 Dry 33.6F - 17F - - - - - - 0 mhos 0 - Snow Slight 0.13 in 0.0 iph
Date/Time
(MST)
Sf
Temp Chem Water Layer Surface Precipitation
Sfc Pvt Sub Frz Factor Pct Dpth DpthThk IcePct Cond Salin FI Type Intens Accum Rate
02/24/2018 11:37 Dry 33.6F - 17F - - - - - - 0 mhos 0 - Snow Slight 0.13 in 0.0 iph
02/24/2018 11:28 Dry 32.7F - 17F - - - - - - 0 mhos 0 - Snow Slight 0.13 in 0.0 iph
02/24/2018 11:22 Dry 32.0F - 17F - - - - - - 0 mhos 0 - Snow Slight 0.13 in 0.0 iph
02/24/2018 11:18 Dry 31.8F - 17F - - - - - - 0 mhos 0 - Snow Slight 0.14 in 0.0 iph
02/24/2018 11:08 Dry 30.7F - 17F - - - - - - 0 mhos 0 - Snow Slight 0.15 in 0.0 iph
02/24/2018 11:06 Dry 30.6F - 17F - - - - - - 0 mhos 0 - Snow Slight 0.15 in 0.0 iph
02/24/2018 10:58 Dry 29.7F - 17F - - - - - - 0 mhos 0 - Snow Slight 0.15 in 0.0 iph
02/24/2018 10:51 Dry 28.9F - 17F - - - - - - 0 mhos 0 - Snow Slight 0.15 in 0.0 iph
02/24/2018 10:48 Dry 28.6F - 17F - - - - - - 0 mhos 0 - Snow Slight 0.15 in 0.0 iph
02/24/2018 10:38 Dry 28.0F - 17F - - - - - - 0 mhos 0 - Snow Slight 0.15 in 0.0 iph
02/24/2018 10:36 Dry 27.9F - 17F - - - - - - 0 mhos 0 - Snow Slight 0.15 in 0.0 iph
02/24/2018 10:28 Dry 27.0F - 17F - - - - - - 0 mhos 0 - Snow Slight 0.15 in 0.0 iph
02/24/2018 10:22 Dry 26.4F - 17F - - - - - - 0 mhos 0 - Snow Slight 0.15 in 0.0 iph
02/24/2018 10:18 Dry 25.9F - 17F - - - - - - 0 mhos 0 - None None 0.15 in 0.0 iph
02/24/2018 10:08 Dry 25.0F - 17F - - - - - - 0 mhos 1 - None None 0.15 in 0.0 iph
Date/Time
(MST)
Sf
Temp Chem Water Layer Surface Precipitation
Sfc Pvt Sub Frz Factor Pct Dpth DpthThk IcePct Cond Salin FI Type Intens Accum Rate
02/24/2018 10:07 Dry 25.0F - 17F - - - - - - 0 mhos 1 - None None 0.15 in 0.0 iph
02/24/2018 09:58 Dry 23.7F - 17F - - - - - - 0 mhos 1 - None None 0.16 in 0.0 iph
02/24/2018 09:52 Dry 22.8F - 17F - - - - - - 0 mhos 1 - None None 0.16 in 0.0 iph
02/24/2018 09:47 Dry 22.3F - 17F - - - - - - 0 mhos 1 - Snow Slight 0.16 in 0.0 iph
02/24/2018 09:37 Dry 21.4F - 17F - - - - - - 0 mhos 1 - None None 0.16 in 0.0 iph
02/24/2018 09:37 Dry 21.4F - 17F - - - - - - 0 mhos 1 - None None 0.16 in 0.0 iph
02/24/2018 09:27 Dry 20.1F - 17F - - - - - - 0 mhos 2 - None None 0.16 in 0.0 iph
02/24/2018 09:22 Dry 19.6F - 17F - - - - - - 0 mhos 3 - Snow Slight 0.16 in 0.0 iph
02/24/2018 09:17 Dry 19.2F - 17F - - - - - - 0 mhos 5 - None None 0.16 in 0.0 iph
02/24/2018 09:07 Dry 18.1F - 17F - - - - - - 0 mhos 9 - Snow Slight 0.16 in 0.0 iph
02/24/2018 09:06 Dry 18.1F - 17F - - - - - - 0 mhos 9 - Snow Slight 0.16 in 0.0 iph
02/24/2018 08:57 Dry 17.2F - 17F - - - - - - 0 mhos 12 - None None 0.16 in 0.0 iph
02/24/2018 08:52 Dry 16.9F - 17F - - - - - - 0 mhos 14 - None None 0.16 in 0.0 iph
02/24/2018 08:47 Dry 16.3F - 17F - - - - - - 0 mhos 15 - Snow Slight 0.17 in 0.0 iph
02/24/2018 08:37 Dry 15.4F - 17F - - - - - - 0 mhos 16 - None None 0.17 in 0.0 iph
Date/Time
(MST)
Sf
Temp Chem Water Layer Surface Precipitation
Sfc Pvt Sub Frz Factor Pct Dpth DpthThk IcePct Cond Salin FI Type Intens Accum Rate
02/24/2018 08:37 Dry 15.4F - 17F - - - - - - 0 mhos 16 - None None 0.17 in 0.0 iph
02/24/2018 08:27 Dry 14.4F - 17F - - - - - - 0 mhos 17 - Snow Slight 0.17 in 0.0 iph
02/24/2018 08:22 Dry 14.0F - 17F - - - - - - 0 mhos 17 - Snow Slight 0.17 in 0.0 iph
02/24/2018 08:17 Dry 13.5F - 17F - - - - - - 0 mhos 17 - None None 0.17 in 0.0 iph
02/24/2018 08:07 Dry 12.9F - 17F - - - - - - 0 mhos 18 - Snow Slight 0.17 in 0.0 iph
02/24/2018 08:06 Dry 12.9F - 17F - - - - - - 0 mhos 18 - Snow Slight 0.17 in 0.0 iph
02/24/2018 07:57 Dry 12.4F - 17F - - - - - - 0 mhos 18 - Snow Slight 0.17 in 0.0 iph
02/24/2018 07:51 Dry 12.2F - 17F - - - - - - 0 mhos 19 - Snow Slight 0.17 in 0.0 iph
02/24/2018 07:47 Ice Warning 12.0F - 17F 32F 5 0% - - 100% 0 mhos 19 - Snow Slight 0.17 in 0.0 iph
02/24/2018 07:37 Ice Warning 12.0F - 17F 32F 5 0% - - 100% 0 mhos 19 - Snow Slight 0.17 in 0.0 iph
02/24/2018 07:36 Ice Warning 12.0F - 17F 32F 5 0% - - 100% 0 mhos 19 - Snow Slight 0.17 in 0.0 iph
02/24/2018 07:27 Ice Warning 11.8F - 17F 32F 5 0% - - 100% 0 mhos 19 - Snow Slight 0.17 in 0.0 iph
02/24/2018 07:21 Ice Warning 11.7F - 17F 32F 5 0% - - 100% 0 mhos 19 - Snow Slight 0.17 in 0.0 iph
02/24/2018 07:17 Ice Warning 11.5F - 17F 32F 5 0% - - 100% 0 mhos 19 - Snow Slight 0.17 in 0.0 iph
02/24/2018 07:06 Ice Warning 11.5F - 17F 32F 5 0% - - 100% 0 mhos 19 - Snow Slight 0.17 in 0.0 iph
Date/Time
(MST)
Sf
Temp Chem Water Layer Surface Precipitation
Sfc Pvt Sub Frz Factor Pct Dpth DpthThk IcePct Cond Salin FI Type Intens Accum Rate
02/24/2018 07:06 Ice Warning 11.5F - 17F 32F 5 0% - - 100% 0 mhos 19 - Snow Slight 0.17 in 0.0 iph
02/24/2018 06:56 Ice Warning 10.9F - 17F 32F 5 0% - - 100% 0 mhos 19 - Snow Slight 0.17 in 0.0 iph
02/24/2018 06:51 Ice Warning 11.1F - 17F 32F 5 0% - - 100% 0 mhos 19 - Snow Slight 0.17 in 0.0 iph
02/24/2018 06:46 Ice Warning 11.3F - 17F 32F 5 0% - - 100% 0 mhos 19 - Snow Slight 0.17 in 0.0 iph
02/24/2018 06:36 Ice Warning 10.9F - 17F 32F 5 0% - - 100% 0 mhos 19 - Snow Slight 0.17 in 0.0 iph
02/24/2018 06:36 Ice Warning 10.9F - 17F 32F 5 0% - - 100% 0 mhos 19 - Snow Slight 0.17 in 0.0 iph
02/24/2018 06:26 Ice Warning 10.9F - 17F 32F 5 0% - - 100% 0 mhos 19 - Snow Slight 0.18 in 0.0 iph
02/24/2018 06:21 Ice Warning 10.8F - 17F 32F 5 0% - - 100% 0 mhos 19 - Snow Slight 0.18 in 0.0 iph
02/24/2018 06:16 Ice Warning 10.9F - 17F 32F 5 0% - - 100% 0 mhos 19 - Snow Slight 0.18 in 0.0 iph
02/24/2018 06:06 Ice Warning 11.1F - 17F 32F 5 0% - - 100% 0 mhos 19 - Snow Slight 0.18 in 0.0 iph
02/24/2018 06:06 Ice Warning 11.3F - 17F 32F 5 0% - - 100% 0 mhos 19 - Snow Slight 0.18 in 0.0 iph
02/24/2018 05:56 Ice Warning 11.7F - 17F 32F 5 0% - - 100% 0 mhos 19 - None None 0.18 in 0.0 iph
02/24/2018 05:51 Ice Warning 11.7F - 17F 32F 5 0% - - 100% 0 mhos 19 - Snow Slight 0.18 in 0.0 iph
02/24/2018 05:46 Ice Warning 11.8F - 17F 32F 5 0% - - 100% 0 mhos 19 - Snow Slight 0.18 in 0.0 iph
02/24/2018 05:36 Ice Warning 12.2F - 17F 32F 5 0% - - 100% 0 mhos 19 - Snow Slight 0.18 in 0.0 iph
Date/Time
(MST)
Sf
Temp Chem Water Layer Surface Precipitation
Sfc Pvt Sub Frz Factor Pct Dpth DpthThk IcePct Cond Salin FI Type Intens Accum Rate
02/24/2018 05:36 Ice Warning 12.2F - 17F 32F 5 0% - - 100% 0 mhos 19 - Snow Slight 0.18 in 0.0 iph
02/24/2018 05:26 Ice Warning 12.2F - 17F 32F 5 0% - - 100% 0 mhos 19 - Snow Slight 0.18 in 0.0 iph
02/24/2018 05:21 Ice Warning 12.4F - 17F 32F 5 0% - - 100% 0 mhos 19 - Snow Slight 0.18 in 0.0 iph
02/24/2018 05:16 Dry 12.4F - 17F - - - - - - 0 mhos 19 - Snow Slight 0.18 in 0.0 iph
02/24/2018 05:06 Dry 12.6F - 17F - - - - - - 0 mhos 19 - Snow Slight 0.18 in 0.0 iph
02/24/2018 05:06 Dry 12.6F - 17F - - - - - - 0 mhos 19 - Snow Slight 0.18 in 0.0 iph
02/24/2018 04:56 Dry 12.9F - 17F - - - - - - 0 mhos 18 - Snow Slight 0.18 in 0.0 iph
02/24/2018 04:51 Dry 12.9F - 17F - - - - - - 0 mhos 18 - Snow Slight 0.18 in 0.0 iph
02/24/2018 04:46 Dry 13.1F - 17F - - - - - - 0 mhos 18 - Snow Slight 0.18 in 0.0 iph
02/24/2018 04:36 Dry 12.9F - 17F - - - - - - 0 mhos 18 - Snow Slight 0.18 in 0.0 iph
02/24/2018 04:36 Dry 12.9F - 17F - - - - - - 0 mhos 18 - Snow Slight 0.18 in 0.0 iph
02/24/2018 04:26 Dry 13.1F - 17F - - - - - - 0 mhos 18 - Snow Slight 0.18 in 0.0 iph
02/24/2018 04:21 Dry 13.1F - 17F - - - - - - 0 mhos 18 - Snow Slight 0.18 in 0.0 iph
02/24/2018 04:15 Dry 13.3F - 17F - - - - - - 0 mhos 18 - Snow Slight 0.18 in 0.0 iph
02/24/2018 04:06 Dry 13.1F - 17F - - - - - - 0 mhos 18 - Snow Slight 0.18 in 0.0 iph
Date/Time
(MST)
Sf
Temp Chem Water Layer Surface Precipitation
Sfc Pvt Sub Frz Factor Pct Dpth DpthThk IcePct Cond Salin FI Type Intens Accum Rate
02/24/2018 04:05 Dry 13.1F - 17F - - - - - - 0 mhos 18 - Snow Slight 0.18 in 0.0 iph
02/24/2018 03:55 Dry 13.1F - 17F - - - - - - 0 mhos 18 - Snow Slight 0.18 in 0.0 iph
02/24/2018 03:51 Dry 13.1F - 17F - - - - - - 0 mhos 18 - Snow Slight 0.18 in 0.0 iph
02/24/2018 03:45 Dry 13.1F - 17F - - - - - - 0 mhos 17 - Snow Slight 0.18 in 0.0 iph
02/24/2018 03:36 Dry 13.1F - 17F - - - - - - 0 mhos 17 - Snow Slight 0.18 in 0.0 iph
02/24/2018 03:35 Dry 13.1F - 17F - - - - - - 0 mhos 17 - Snow Slight 0.18 in 0.0 iph
02/24/2018 03:25 Dry 13.1F - 17F - - - - - - 0 mhos 17 - Snow Slight 0.18 in 0.0 iph
02/24/2018 03:21 Dry 13.3F - 17F - - - - - - 0 mhos 16 - Snow Slight 0.18 in 0.0 iph
02/24/2018 03:15 Dry 13.3F - 17F - - - - - - 0 mhos 15 - Snow Slight 0.18 in 0.0 iph
02/24/2018 03:06 Dry 13.3F - 17F - - - - - - 0 mhos 15 - Snow Slight 0.18 in 0.0 iph
02/24/2018 03:05 Dry 13.3F - 17F - - - - - - 0 mhos 15 - Snow Slight 0.18 in 0.0 iph
02/24/2018 02:55 Dry 13.5F - 17F - - - - - - 0 mhos 15 - Snow Slight 0.18 in 0.0 iph
02/24/2018 02:51 Dry 13.5F - 17F - - - - - - 0 mhos 15 - Snow Slight 0.18 in 0.0 iph
02/24/2018 02:45 Dry 13.5F - 17F - - - - - - 0 mhos 14 - Snow Slight 0.18 in 0.0 iph
02/24/2018 02:36 Dry 13.5F - 17F - - - - - - 0 mhos 13 - Snow Slight 0.18 in 0.0 iph
Date/Time
(MST)
Sf
Temp Chem Water Layer Surface Precipitation
Sfc Pvt Sub Frz Factor Pct Dpth DpthThk IcePct Cond Salin FI Type Intens Accum Rate
02/24/2018 02:35 Dry 13.5F - 17F - - - - - - 0 mhos 13 - Snow Slight 0.18 in 0.0 iph
02/24/2018 02:25 Dry 13.5F - 17F - - - - - - 0 mhos 12 - Snow Slight 0.18 in 0.0 iph
02/24/2018 02:21 Dry 13.5F - 17F - - - - - - 0 mhos 12 - Snow Slight 0.18 in 0.0 iph
02/24/2018 02:15 Dry 13.5F - 17F - - - - - - 0 mhos 11 - Snow Slight 0.18 in 0.0 iph
02/24/2018 02:06 Dry 13.5F - 17F - - - - - - 0 mhos 10 - Snow Slight 0.18 in 0.0 iph
02/24/2018 02:05 Dry 13.5F - 17F - - - - - - 0 mhos 10 - Snow Slight 0.18 in 0.0 iph
02/24/2018 01:55 Dry 13.5F - 17F - - - - - - 0 mhos 9 - Snow Slight 0.17 in 0.0 iph
02/24/2018 01:51 Dry 13.5F - 17F - - - - - - 0 mhos 8 - Snow Slight 0.17 in 0.0 iph
02/24/2018 01:45 Dry 13.5F - 17F - - - - - - 0 mhos 8 - Snow Slight 0.17 in 0.0 iph
02/24/2018 01:36 Dry 13.5F - 17F - - - - - - 0 mhos 6 - Snow Slight 0.17 in 0.0 iph
02/24/2018 01:35 Dry 13.5F - 17F - - - - - - 0 mhos 6 - Snow Slight 0.17 in 0.0 iph
02/24/2018 01:25 Dry 13.5F - 17F - - - - - - 0 mhos 3 - Snow Slight 0.17 in 0.0 iph
02/24/2018 01:21 Dry 13.5F - 17F - - - - - - 0 mhos 2 - Snow Slight 0.17 in 0.0 iph
02/24/2018 01:14 Dry 13.5F - 17F - - - - - - 0 mhos 1 - Snow Slight 0.17 in 0.0 iph
02/24/2018 01:06 Dry 13.5F - 17F - - - - - - 0 mhos 1 - Snow Slight 0.17 in 0.0 iph
Date/Time
(MST)
Sf
Temp Chem Water Layer Surface Precipitation
Sfc Pvt Sub Frz Factor Pct Dpth DpthThk IcePct Cond Salin FI Type Intens Accum Rate
02/24/2018 01:04 Dry 13.5F - 17F - - - - - - 0 mhos 1 - Snow Slight 0.17 in 0.0 iph
02/24/2018 00:54 Dry 13.6F - 17F - - - - - - 0 mhos 1 - Snow Slight 0.17 in 0.0 iph
02/24/2018 00:51 Dry 13.6F - 17F - - - - - - 0 mhos 1 - Snow Slight 0.17 in 0.0 iph
02/24/2018 00:44 Dry 13.6F - 17F - - - - - - 0 mhos 1 - Snow Slight 0.17 in 0.0 iph
02/24/2018 00:36 Dry 13.6F - 17F - - - - - - 0 mhos 1 - Snow Slight 0.17 in 0.0 iph
02/24/2018 00:34 Dry 13.6F - 17F - - - - - - 0 mhos 1 - Snow Slight 0.17 in 0.0 iph
02/24/2018 00:24 Dry 13.6F - 17F - - - - - - 0 mhos 1 - Snow Slight 0.17 in 0.0 iph
02/24/2018 00:21 Dry 13.6F - 17F - - - - - - 0 mhos 1 - Snow Slight 0.17 in 0.0 iph
02/24/2018 00:14 Dry 13.6F - 17F - - - - - - 0 mhos 1 - Snow Slight 0.17 in 0.0 iph
02/24/2018 00:06 Dry 13.6F - 17F - - - - - - 0 mhos 1 - Snow Slight 0.17 in 0.0 iph
02/24/2018 00:04 Dry 13.6F - 17F - - - - - - 0 mhos 1 - Snow Slight 0.17 in 0.0 iph
02/23/2018 23:54 Dry 13.6F - 17F - - - - - - 0 mhos 1 - Snow Slight 0.17 in 0.0 iph
02/23/2018 23:51 Dry 13.6F - 17F - - - - - - 0 mhos 1 - Snow Slight 0.17 in 0.0 iph
02/23/2018 23:44 Dry 13.6F - 17F - - - - - - 0 mhos 1 - Snow Slight 0.17 in 0.0 iph
02/23/2018 23:38 Dry 13.6F - 17F - - - - - - 0 mhos 1 - Snow Slight 0.17 in 0.0 iph
Date/Time
(MST)
Sf
Temp Chem Water Layer Surface Precipitation
Sfc Pvt Sub Frz Factor Pct Dpth DpthThk IcePct Cond Salin FI Type Intens Accum Rate
02/23/2018 23:34 Dry 13.6F - 17F - - - - - - 0 mhos 1 - Snow Slight 0.17 in 0.0 iph
02/23/2018 23:24 Dry 13.6F - 17F - - - - - - 0 mhos 1 - Snow Slight 0.17 in 0.0 iph
02/23/2018 23:21 Dry 13.6F - 17F - - - - - - 0 mhos 1 - Snow Slight 0.17 in 0.0 iph
02/23/2018 23:14 Dry 13.8F - 17F - - - - - - 0 mhos 0 - Snow Slight 0.17 in 0.0 iph
02/23/2018 23:06 Dry 14.0F - 17F - - - - - - 0 mhos 0 - Snow Slight 0.17 in 0.0 iph
02/23/2018 23:04 Dry 14.0F - 17F - - - - - - 0 mhos 0 - Snow Slight 0.17 in 0.0 iph
02/23/2018 22:54 Dry 14.2F - 17F - - - - - - 0 mhos 0 - Snow Slight 0.17 in 0.0 iph
02/23/2018 22:52 Dry 14.2F - 17F - - - - - - 0 mhos 0 - Snow Slight 0.17 in 0.0 iph
02/23/2018 22:44 Dry 14.2F - 17F - - - - - - 0 mhos 0 - Snow Slight 0.17 in 0.0 iph
02/23/2018 22:36 Dry 14.4F - 17F - - - - - - 0 mhos 0 - Snow Slight 0.17 in 0.0 iph
02/23/2018 22:34 Dry 14.4F - 17F - - - - - - 0 mhos 0 - Snow Slight 0.17 in 0.0 iph
02/23/2018 22:24 Dry 14.4F - 17F - - - - - - 0 mhos 0 - None None 0.17 in 0.0 iph
02/23/2018 22:21 Dry 14.4F - 17F - - - - - - 0 mhos 0 - None None 0.17 in 0.0 iph
02/23/2018 22:13 Dry 14.4F - 17F - - - - - - 0 mhos 0 - None None 0.17 in 0.0 iph
02/23/2018 22:06 Dry 14.4F - 17F - - - - - - 0 mhos 0 - None None 0.17 in 0.0 iph
Date/Time
(MST)
Sf
Temp Chem Water Layer Surface Precipitation
Sfc Pvt Sub Frz Factor Pct Dpth DpthThk IcePct Cond Salin FI Type Intens Accum Rate
02/23/2018 22:03 Dry 14.4F - 17F - - - - - - 0 mhos 0 - None None 0.17 in 0.0 iph
02/23/2018 21:53 Dry 14.4F - 17F - - - - - - 0 mhos 0 - None None 0.17 in 0.0 iph
02/23/2018 21:51 Dry 14.4F - 17F - - - - - - 0 mhos 0 - None None 0.17 in 0.0 iph
02/23/2018 21:43 Dry 14.4F - 17F - - - - - - 0 mhos 0 - None None 0.17 in 0.0 iph
02/23/2018 21:36 Dry 14.5F - 17F - - - - - - 0 mhos 0 - None None 0.17 in 0.0 iph
02/23/2018 21:33 Dry 14.5F - 17F - - - - - - 0 mhos 0 - Snow Slight 0.17 in 0.0 iph
02/23/2018 21:23 Dry 14.5F - 17F - - - - - - 0 mhos 0 - Snow Slight 0.17 in 0.0 iph
02/23/2018 21:21 Dry 14.5F - 17F - - - - - - 0 mhos 0 - Snow Slight 0.17 in 0.0 iph
02/23/2018 21:13 Dry 14.5F - 17F - - - - - - 0 mhos 0 - Snow Slight 0.17 in 0.0 iph
02/23/2018 21:06 Dry 14.5F - 17F - - - - - - 0 mhos 0 - Snow Slight 0.17 in 0.0 iph
02/23/2018 21:03 Dry 14.5F - 17F - - - - - - 0 mhos 0 - Snow Slight 0.17 in 0.0 iph
02/23/2018 20:53 Dry 14.5F - 17F - - - - - - 0 mhos 0 - Snow Slight 0.17 in 0.0 iph
02/23/2018 20:51 Dry 14.5F - 17F - - - - - - 0 mhos 0 - Snow Slight 0.17 in 0.0 iph
02/23/2018 20:43 Dry 14.7F - 17F - - - - - - 0 mhos 0 - Snow Slight 0.17 in 0.0 iph
02/23/2018 20:36 Dry 14.9F - 17F - - - - - - 0 mhos 0 - Snow Slight 0.17 in 0.0 iph
Date/Time
(MST)
Sf
Temp Chem Water Layer Surface Precipitation
Sfc Pvt Sub Frz Factor Pct Dpth DpthThk IcePct Cond Salin FI Type Intens Accum Rate
02/23/2018 20:33 Dry 15.1F - 17F - - - - - - 0 mhos 0 - Snow Slight 0.17 in 0.0 iph
02/23/2018 20:23 Dry 15.4F - 17F - - - - - - 0 mhos 0 - Snow Slight 0.17 in 0.0 iph
02/23/2018 20:21 Dry 15.4F - 17F - - - - - - 0 mhos 0 - Snow Slight 0.17 in 0.0 iph
02/23/2018 20:13 Dry 15.4F - 17F - - - - - - 0 mhos 0 - Snow Slight 0.17 in 0.0 iph
02/23/2018 20:06 Dry 15.6F - 17F - - - - - - 0 mhos 0 - Snow Slight 0.17 in 0.0 iph
02/23/2018 20:03 Dry 15.6F - 17F - - - - - - 0 mhos 0 - Snow Slight 0.17 in 0.0 iph
02/23/2018 19:53 Dry 15.8F - 17F - - - - - - 0 mhos 0 - Snow Slight 0.17 in 0.0 iph
02/23/2018 19:51 Dry 15.8F - 17F - - - - - - 0 mhos 0 - Snow Slight 0.17 in 0.0 iph
02/23/2018 19:43 Dry 15.8F - 17F - - - - - - 0 mhos 0 - Snow Slight 0.17 in 0.0 iph
02/23/2018 19:36 Dry 15.8F - 17F - - - - - - 0 mhos 0 - Snow Slight 0.17 in 0.0 iph
02/23/2018 19:32 Dry 16.0F - 17F - - - - - - 0 mhos 0 - Snow Slight 0.17 in 0.0 iph
02/23/2018 19:22 Dry 16.2F - 17F - - - - - - 0 mhos 0 - Snow Moderate 0.17 in 0.0 iph
02/23/2018 19:21 Dry 16.2F - 17F - - - - - - 0 mhos 0 - Snow Moderate 0.17 in 0.0 iph
02/23/2018 19:12 Dry 16.5F - 17F - - - - - - 0 mhos 0 - Snow Moderate 0.17 in 0.1 iph
02/23/2018 19:07 Dry 16.5F - 17F - - - - - - 0 mhos 0 - Snow Moderate 0.16 in 0.0 iph
Change End Date:

Copyright © 1998-2015 Vaisala, Inc.
All Rights Reserved
Send comments about the data to:
SCAN Web ® is a registered trademark of Vaisala, Inc.
SCAN Web Version 6.0